GW1010 Weather Reports


Display with metric or nautical units.
time (UTC)temp
F
wind
direction
speed
MPH
gust
MPH
rain 1hr
in
rain 24hr
in
rain mn
in
humidity
%
barometer
mb
20260510234542 90 169 2.0 8.0 0.00 0.00 0.00 35 1011.5
20260510234026 91 150 2.0 8.0 0.00 0.00 0.00 35 1011.6
20260510233531 92 218 2.0 7.0 0.00 0.00 0.00 35 1011.5
20260510233042 92 149 1.0 7.0 0.00 0.00 0.00 34 1011.6
20260510232529 93 178 2.0 6.0 0.00 0.00 0.00 36 1011.7
20260510232028 93 212 2.0 6.0 0.00 0.00 0.00 35 1011.7
20260510231542 93 224 2.0 7.0 0.00 0.00 0.00 34 1011.8
20260510231028 94 249 2.0 7.0 0.00 0.00 0.00 33 1011.8
20260510230525 95 51 1.0 6.0 0.00 0.00 0.00 33 1011.8
20260510230043 94 291 1.0 4.0 0.00 0.00 0.00 32 1011.8
20260510225525 94 61 1.0 4.0 0.00 0.00 0.00 32 1011.8
20260510225029 94 236 2.0 3.0 0.00 0.00 0.00 33 1011.8
20260510224542 94 281 1.0 6.0 0.00 0.00 0.00 29 1011.8
20260510224028 94 300 2.0 6.0 0.00 0.00 0.00 30 1011.9
20260510223531 95 346 0.0 3.0 0.00 0.00 0.00 32 1011.9
20260510223044 95 0 1.0 3.0 0.00 0.00 0.00 30 1011.9
20260510222528 94 274 0.0 4.0 0.00 0.00 0.00 33 1011.9
20260510222028 94 226 1.0 4.0 0.00 0.00 0.00 30 1012.1
20260510221543 94 0 1.0 4.0 0.00 0.00 0.00 30 1012.1
20260510221029 94 314 1.0 4.0 0.00 0.00 0.00 27 1012.2
20260510220529 94 308 2.0 4.0 0.00 0.00 0.00 27 1012.3
20260510220042 94 326 1.0 3.0 0.00 0.00 0.00 27 1012.4
20260510215528 95 308 1.0 3.0 0.00 0.00 0.00 26 1012.4
20260510215028 95 311 1.0 3.0 0.00 0.00 0.00 28 1012.4
20260510214541 94 205 1.0 4.0 0.00 0.00 0.00 27 1012.5
20260510214028 94 322 2.0 4.0 0.00 0.00 0.00 26 1012.5
20260510213529 94 285 1.0 3.0 0.00 0.00 0.00 29 1012.5
20260510213037 94 182 1.0 3.0 0.00 0.00 0.00 28 1012.6
20260510212528 94 250 1.0 3.0 0.00 0.00 0.00 27 1012.7
20260510212033 94 245 0.0 3.0 0.00 0.00 0.00 27 1012.8
20260510211542 92 238 1.0 4.0 0.00 0.00 0.00 28 1012.9
20260510211029 92 15 1.0 4.0 0.00 0.00 0.00 28 1013.0
20260510210526 92 19 1.0 4.0 0.00 0.00 0.00 29 1013.0
20260510210042 92 181 1.0 4.0 0.00 0.00 0.00 30 1013.1
20260510205527 92 311 1.0 4.0 0.00 0.00 0.00 29 1013.1
20260510205030 91 307 1.0 5.0 0.00 0.00 0.00 30 1013.1
20260510204541 91 238 1.0 5.0 0.00 0.00 0.00 29 1013.1
20260510204027 91 293 2.0 5.0 0.00 0.00 0.00 28 1013.2
20260510203527 91 257 1.0 5.0 0.00 0.00 0.00 32 1013.2
20260510203039 90 204 1.0 5.0 0.00 0.00 0.00 29 1013.2
20260510202530 90 324 2.0 4.0 0.00 0.00 0.00 31 1013.2
20260510202029 90 304 0.0 4.0 0.00 0.00 0.00 31 1013.2
20260510201543 89 321 1.0 4.0 0.00 0.00 0.00 32 1013.3
20260510201028 89 280 1.0 4.0 0.00 0.00 0.00 33 1013.4
20260510200527 88 309 1.0 4.0 0.00 0.00 0.00 33 1013.5
20260510200043 88 212 1.0 4.0 0.00 0.00 0.00 33 1013.7
20260510195526 87 305 1.0 5.0 0.00 0.00 0.00 36 1013.7
20260510195027 86 239 1.0 5.0 0.00 0.00 0.00 36 1013.8
20260510194542 86 307 2.0 5.0 0.00 0.00 0.00 34 1013.8
20260510194029 86 278 1.0 4.0 0.00 0.00 0.00 34 1013.9
20260510193529 85 314 2.0 4.0 0.00 0.00 0.00 36 1014.0
20260510193042 85 304 2.0 4.0 0.00 0.00 0.00 38 1014.0
20260510192527 85 303 1.0 5.0 0.00 0.00 0.00 41 1014.1
20260510192028 84 296 1.0 5.0 0.00 0.00 0.00 39 1014.2
20260510191541 84 344 1.0 4.0 0.00 0.00 0.00 40 1014.2
20260510191029 83 298 1.0 4.0 0.00 0.00 0.00 41 1014.2
20260510190529 83 308 1.0 4.0 0.00 0.00 0.00 43 1014.3
20260510190044 82 306 1.0 7.0 0.00 0.00 0.00 43 1014.4
20260510185529 81 0 0.0 7.0 0.00 0.00 0.00 44 1014.4
20260510185026 80 308 1.0 4.0 0.00 0.00 0.00 44 1014.4
20260510184539 80 310 1.0 4.0 0.00 0.00 0.00 45 1014.5
20260510184028 79 319 1.0 4.0 0.00 0.00 0.00 46 1014.6
20260510183530 79 345 1.0 4.0 0.00 0.00 0.00 45 1014.6
20260510183044 79 12 1.0 4.0 0.00 0.00 0.00 47 1014.7
20260510182527 78 304 0.0 3.0 0.00 0.00 0.00 48 1014.8
20260510182027 77 348 1.0 4.0 0.00 0.00 0.00 52 1014.9
20260510181544 76 342 0.0 4.0 0.00 0.00 0.00 52 1015.0
20260510181027 76 325 0.0 4.0 0.00 0.00 0.00 54 1015.0
20260510180527 74 225 0.0 5.0 0.00 0.00 0.00 55 1015.1
20260510180040 74 314 1.0 5.0 0.00 0.00 0.00 56 1015.1
20260510175529 73 332 1.0 5.0 0.00 0.00 0.00 57 1015.2
20260510175027 73 238 1.0 2.0 0.00 0.00 0.00 58 1015.2
20260510174540 72 0 0.0 4.0 0.00 0.00 0.00 59 1015.3
20260510174032 71 304 1.0 4.0 0.00 0.00 0.00 60 1015.4
20260510173531 71 343 1.0 4.0 0.00 0.00 0.00 62 1015.4
20260510173045 70 316 1.0 4.0 0.00 0.00 0.00 61 1015.4
20260510172528 70 319 0.0 2.0 0.00 0.00 0.00 65 1015.4
20260510172027 69 207 0.0 2.0 0.00 0.00 0.00 66 1015.5
20260510171553 68 259 1.0 2.0 0.00 0.00 0.00 67 1015.5
20260510171026 67 321 0.0 4.0 0.00 0.00 0.00 69 1015.6
20260510170526 66 0 1.0 4.0 0.00 0.00 0.00 70 1015.6
20260510170047 65 318 1.0 4.0 0.00 0.00 0.00 73 1015.6
20260510165528 65 310 1.0 4.0 0.00 0.00 0.00 72 1015.6
20260510165027 64 0 0.0 4.0 0.00 0.00 0.00 74 1015.6
20260510164544 64 317 0.0 3.0 0.00 0.00 0.00 74 1015.7
20260510164027 62 259 0.0 5.0 0.00 0.00 0.00 77 1015.8
20260510163533 61 0 0.0 5.0 0.00 0.00 0.00 77 1015.9
20260510163039 62 177 0.0 2.0 0.00 0.00 0.00 78 1015.9
20260510162529 61 177 0.0 3.0 0.00 0.00 0.00 79 1015.9
20260510162026 60 0 1.0 3.0 0.00 0.00 0.00 80 1015.9
20260510161542 60 0 0.0 1.0 0.00 0.00 0.00 83 1015.9
20260510161028 59 0 0.0 1.0 0.00 0.00 0.00 84 1015.9
20260510160528 58 0 0.0 1.0 0.00 0.00 0.00 85 1016.0
20260510160041 58 0 0.0 0.0 0.00 0.00 0.00 86 1016.1
20260510155531 57 0 0.0 0.0 0.00 0.00 0.00 88 1016.1
20260510155027 56 0 0.0 0.0 0.00 0.00 0.00 90 1016.1
20260510154541 56 0 0.0 0.0 0.00 0.00 0.00 90 1016.1
20260510154028 55 0 0.0 3.0 0.00 0.00 0.00 90 1016.1
20260510153528 55 0 0.0 3.0 0.00 0.00 0.00 91 1016.1
20260510153041 54 0 1.0 3.0 0.00 0.00 0.00 91 1016.0
20260510152527 54 320 0.0 3.0 0.00 0.00 0.00 92 1016.0
20260510152028 54 299 0.0 3.0 0.00 0.00 0.00 92 1016.0
20260510151550 54 0 0.0 0.0 0.00 0.00 0.00 93 1015.9
20260510151027 53 0 0.0 0.0 0.00 0.00 0.00 93 1016.0
20260510150528 53 0 0.0 0.0 0.00 0.00 0.00 93 1016.0
20260510150053 53 0 0.0 0.0 0.00 0.00 0.00 93 1016.0
20260510145527 53 0 0.0 0.0 0.00 0.00 0.00 93 1016.0
20260510145029 53 0 0.0 0.0 0.00 0.00 0.00 94 1015.9
20260510144603 53 0 0.0 0.0 0.00 0.00 0.00 94 1015.9
20260510144029 52 0 0.0 0.0 0.00 0.00 0.00 94 1015.8
20260510143528 52 0 0.0 0.0 0.00 0.00 0.00 94 1015.8
20260510143042 52 0 0.0 0.0 0.00 0.00 0.00 94 1015.8
20260510142527 52 0 0.0 0.0 0.00 0.00 0.00 94 1015.8
20260510142027 52 0 0.0 0.0 0.00 0.00 0.00 94 1015.7
20260510141538 52 0 0.0 0.0 0.00 0.00 0.00 94 1015.7
20260510141028 52 0 0.0 0.0 0.00 0.00 0.00 94 1015.7
20260510140526 52 0 0.0 0.0 0.00 0.00 0.00 94 1015.6
20260510140039 51 0 0.0 0.0 0.00 0.00 0.00 94 1015.5
20260510135530 51 0 0.0 1.0 0.00 0.00 0.00 94 1015.5
20260510135028 51 0 0.0 1.0 0.00 0.00 0.00 94 1015.4
20260510134602 51 321 0.0 1.0 0.00 0.00 0.00 94 1015.3
20260510134029 51 0 0.0 0.0 0.00 0.00 0.00 94 1015.2
20260510133527 51 0 0.0 0.0 0.00 0.00 0.00 94 1015.1
20260510133045 51 0 0.0 0.0 0.00 0.00 0.00 94 1015.0
20260510132527 51 0 0.0 0.0 0.00 0.00 0.00 94 1015.1
20260510132028 51 0 0.0 0.0 0.00 0.00 0.00 94 1015.0
20260510131544 51 0 0.0 0.0 0.00 0.00 0.00 94 1015.0
20260510131027 51 0 0.0 0.0 0.00 0.00 0.00 94 1015.0
20260510130527 50 0 0.0 1.0 0.00 0.00 0.00 94 1015.0
20260510130043 50 0 0.0 1.0 0.00 0.00 0.00 94 1015.0
20260510125526 50 0 0.0 1.0 0.00 0.00 0.00 94 1015.0
20260510125031 51 0 0.0 2.0 0.00 0.00 0.00 94 1015.0
20260510124542 51 0 0.0 2.0 0.00 0.00 0.00 94 1014.8
20260510124028 51 307 1.0 2.0 0.00 0.00 0.00 94 1014.9
20260510123529 50 0 0.0 0.0 0.00 0.00 0.00 94 1015.0
20260510123044 50 0 0.0 0.0 0.00 0.00 0.00 93 1015.0
20260510122526 50 0 0.0 0.0 0.00 0.00 0.00 93 1015.0
20260510122028 50 0 0.0 0.0 0.00 0.00 0.00 93 1015.0
20260510121542 50 0 0.0 0.0 0.00 0.00 0.00 93 1015.0
20260510121028 50 0 0.0 0.0 0.00 0.00 0.00 93 1014.9
20260510120531 51 0 0.0 0.0 0.00 0.00 0.00 93 1014.8
20260510120041 51 0 0.0 0.0 0.00 0.00 0.00 93 1014.9
20260510115527 51 0 0.0 0.0 0.00 0.00 0.00 93 1014.8
20260510115029 51 0 0.0 0.0 0.00 0.00 0.00 93 1015.0
20260510114539 50 0 0.0 0.0 0.00 0.00 0.00 93 1014.9
20260510114026 50 0 0.0 0.0 0.00 0.00 0.00 93 1014.9
20260510113529 50 0 0.0 0.0 0.00 0.00 0.00 92 1014.9
20260510113037 50 0 0.0 0.0 0.00 0.00 0.00 92 1014.9
20260510112528 50 0 0.0 0.0 0.00 0.00 0.00 91 1014.9
20260510112028 50 0 0.0 0.0 0.00 0.00 0.00 91 1015.0
20260510111554 51 0 0.0 0.0 0.00 0.00 0.00 91 1014.9
20260510111027 51 0 0.0 0.0 0.00 0.00 0.00 91 1014.8
20260510110526 51 0 0.0 0.0 0.00 0.00 0.00 91 1015.0
20260510110044 51 0 0.0 0.0 0.00 0.00 0.00 92 1015.0
20260510105527 51 0 0.0 0.0 0.00 0.00 0.00 91 1015.0
20260510105028 51 0 0.0 0.0 0.00 0.00 0.00 91 1014.8
20260510104546 51 0 0.0 0.0 0.00 0.00 0.00 90 1014.8
20260510104027 51 0 0.0 0.0 0.00 0.00 0.00 90 1014.7
20260510103529 51 0 0.0 0.0 0.00 0.00 0.00 89 1014.8
20260510103044 51 0 0.0 0.0 0.00 0.00 0.00 88 1014.8
20260510102527 52 0 0.0 0.0 0.00 0.00 0.00 88 1014.7
20260510102026 52 0 0.0 0.0 0.00 0.00 0.00 89 1014.7
20260510101535 52 0 0.0 0.0 0.00 0.00 0.00 88 1014.7
20260510101027 52 0 0.0 0.0 0.00 0.00 0.00 88 1014.7
20260510100530 52 0 0.0 0.0 0.00 0.00 0.00 87 1014.7
20260510100044 53 0 0.0 0.0 0.00 0.00 0.00 87 1014.7
20260510095528 53 0 0.0 0.0 0.00 0.00 0.00 86 1014.7
20260510095028 53 0 0.0 0.0 0.00 0.00 0.00 87 1014.6
20260510094543 53 0 0.0 0.0 0.00 0.00 0.00 86 1014.6
20260510094027 54 0 0.0 0.0 0.00 0.00 0.00 86 1014.5
20260510093527 54 0 0.0 0.0 0.00 0.00 0.00 85 1014.6
20260510093042 54 0 0.0 0.0 0.00 0.00 0.00 85 1014.6
20260510092527 54 0 0.0 0.0 0.00 0.00 0.00 84 1014.5
20260510092028 55 0 0.0 0.0 0.00 0.00 0.00 84 1014.5
20260510091538 55 0 0.0 0.0 0.00 0.00 0.00 84 1014.5
20260510091028 55 0 0.0 0.0 0.00 0.00 0.00 84 1014.5
20260510090527 55 0 0.0 0.0 0.00 0.00 0.00 83 1014.5
20260510090037 55 0 0.0 0.0 0.00 0.00 0.00 82 1014.4
20260510085528 56 0 0.0 0.0 0.00 0.00 0.00 82 1014.4
20260510085028 56 0 0.0 0.0 0.00 0.00 0.00 82 1014.5
20260510084544 56 0 0.0 0.0 0.00 0.00 0.00 82 1014.4
20260510084028 56 0 0.0 0.0 0.00 0.00 0.00 82 1014.5
20260510083532 56 0 0.0 0.0 0.00 0.00 0.00 81 1014.4
20260510083042 57 0 0.0 0.0 0.00 0.00 0.00 81 1014.5
20260510082527 57 0 0.0 0.0 0.00 0.00 0.00 80 1014.5
20260510082027 57 0 0.0 0.0 0.00 0.00 0.00 80 1014.5
20260510081548 57 0 0.0 0.0 0.00 0.00 0.00 79 1014.6
20260510081028 57 0 0.0 0.0 0.00 0.00 0.00 78 1014.6
20260510080530 58 0 0.0 1.0 0.00 0.00 0.00 78 1014.6
20260510080037 58 0 0.0 1.0 0.00 0.00 0.00 77 1014.6
20260510075527 58 278 0.0 1.0 0.00 0.00 0.00 77 1014.7
20260510075027 58 0 0.0 1.0 0.00 0.00 0.00 77 1014.7
20260510074602 58 274 0.0 1.0 0.00 0.00 0.00 77 1014.6
20260510074026 58 319 0.0 1.0 0.00 0.00 0.00 77 1014.6
20260510073530 59 0 0.0 1.0 0.00 0.00 0.00 76 1014.5
20260510073045 59 0 0.0 1.0 0.00 0.00 0.00 75 1014.5
20260510072527 59 0 0.0 3.0 0.00 0.00 0.00 75 1014.5
20260510072055 59 327 0.0 3.0 0.00 0.00 0.00 75 1014.5
20260510071543 59 320 0.0 3.0 0.00 0.00 0.00 75 1014.6
20260510071027 59 0 0.0 0.0 0.00 0.00 0.00 74 1014.6
20260510070532 59 0 0.0 0.0 0.00 0.00 0.00 74 1014.5
20260510070042 60 0 0.0 0.0 0.00 0.00 0.00 74 1014.6
20260510065532 59 0 0.0 0.0 0.00 0.00 0.00 74 1014.4
20260510065030 59 0 0.0 0.0 0.00 0.00 0.00 72 1014.4
20260510064536 60 0 0.0 0.0 0.00 0.00 0.00 71 1014.3
20260510064028 60 0 0.0 0.0 0.00 0.00 0.00 70 1014.4
20260510063528 61 0 0.0 0.0 0.00 0.00 0.00 69 1014.4
20260510063044 61 0 0.0 0.0 0.00 0.00 0.00 69 1014.3
20260510062529 62 0 0.0 0.0 0.00 0.00 0.00 69 1014.3
20260510062028 62 0 0.0 0.0 0.00 0.00 0.00 68 1014.2
20260510061545 62 0 0.0 0.0 0.00 0.00 0.00 68 1014.2
20260510061029 62 0 0.0 0.0 0.00 0.00 0.00 68 1014.2
20260510060529 62 0 0.0 0.0 0.00 0.00 0.00 67 1014.2
20260510060050 63 0 0.0 0.0 0.00 0.00 0.00 66 1014.1
20260510055528 63 0 0.0 0.0 0.00 0.00 0.00 66 1014.2
20260510055027 63 0 0.0 0.0 0.00 0.00 0.00 66 1014.1
20260510054541 63 0 0.0 0.0 0.00 0.00 0.00 66 1014.0
20260510054027 63 0 0.0 1.0 0.00 0.00 0.00 66 1014.0
20260510053528 63 0 0.0 1.0 0.00 0.00 0.00 65 1013.9
20260510053042 63 0 0.0 0.0 0.00 0.00 0.00 65 1013.9
20260510052528 63 0 0.0 0.0 0.00 0.00 0.00 65 1013.9
20260510052028 64 0 0.0 0.0 0.00 0.00 0.00 65 1014.0
20260510051542 64 0 0.0 0.0 0.00 0.00 0.00 65 1014.0
20260510051028 63 0 0.0 0.0 0.00 0.00 0.00 65 1014.0
20260510050527 64 0 0.0 0.0 0.00 0.00 0.00 63 1014.0
20260510050037 64 0 0.0 0.0 0.00 0.00 0.00 64 1014.0
20260510045531 64 0 0.0 0.0 0.00 0.00 0.00 64 1014.0
20260510045028 64 0 0.0 0.0 0.00 0.00 0.00 63 1013.9
20260510044543 65 0 0.0 0.0 0.00 0.00 0.00 64 1013.9
20260510044030 65 0 0.0 0.0 0.00 0.00 0.00 64 1013.8
20260510043528 65 0 0.0 0.0 0.00 0.00 0.00 64 1013.8
20260510043102 65 0 0.0 0.0 0.00 0.00 0.00 61 1013.6
20260510042528 65 0 0.0 0.0 0.00 0.00 0.00 61 1013.6
20260510042030 65 0 0.0 0.0 0.00 0.00 0.00 60 1013.5
20260510041536 66 0 0.0 0.0 0.00 0.00 0.00 58 1013.4
20260510041028 66 0 0.0 0.0 0.00 0.00 0.00 57 1013.6
20260510040528 66 0 0.0 1.0 0.00 0.00 0.00 57 1013.5
20260510040041 66 0 0.0 2.0 0.00 0.00 0.00 56 1013.3
20260510035528 66 129 0.0 2.0 0.00 0.00 0.00 56 1013.3
20260510035032 66 0 0.0 0.0 0.00 0.00 0.00 57 1013.3
20260510034545 66 0 0.0 0.0 0.00 0.00 0.00 56 1013.1
20260510034028 66 0 0.0 0.0 0.00 0.00 0.00 56 1013.0
20260510033527 66 0 0.0 0.0 0.00 0.00 0.00 55 1013.0
20260510033047 67 0 0.0 0.0 0.00 0.00 0.00 55 1013.0
20260510032528 68 0 0.0 0.0 0.00 0.00 0.00 54 1013.0
20260510032027 69 0 0.0 0.0 0.00 0.00 0.00 55 1012.9
20260510031613 69 0 0.0 0.0 0.00 0.00 0.00 53 1012.8
20260510031028 69 0 0.0 0.0 0.00 0.00 0.00 51 1012.7
20260510030531 70 0 0.0 0.0 0.00 0.00 0.00 50 1012.5
20260510030041 71 0 0.0 0.0 0.00 0.00 0.00 50 1012.6
20260510025528 71 0 0.0 0.0 0.00 0.00 0.00 50 1012.5
20260510025030 72 0 0.0 0.0 0.00 0.00 0.00 47 1012.4
20260510024540 73 0 0.0 0.0 0.00 0.00 0.00 47 1012.4
20260510024028 74 0 0.0 0.0 0.00 0.00 0.00 44 1012.3
20260510023527 74 0 0.0 0.0 0.00 0.00 0.00 43 1012.3
20260510023051 75 0 0.0 0.0 0.00 0.00 0.00 45 1012.2
20260510022529 76 0 0.0 0.0 0.00 0.00 0.00 41 1012.2
20260510022031 76 0 0.0 0.0 0.00 0.00 0.00 40 1012.2
20260510021545 77 0 0.0 0.0 0.00 0.00 0.00 40 1012.1
20260510021027 77 0 0.0 0.0 0.00 0.00 0.00 38 1012.0
20260510020527 78 0 0.0 0.0 0.00 0.00 0.00 38 1012.1
20260510020044 79 0 0.0 0.0 0.00 0.00 0.00 38 1012.0
20260510015528 79 0 0.0 0.0 0.00 0.00 0.00 35 1012.0
20260510015027 80 0 0.0 1.0 0.00 0.00 0.00 37 1012.0
20260510014541 80 0 0.0 1.0 0.00 0.00 0.00 33 1011.9
20260510014027 81 0 0.0 1.0 0.00 0.00 0.00 33 1011.9
20260510013530 81 0 0.0 2.0 0.00 0.00 0.00 34 1011.9
20260510013041 82 0 0.0 2.0 0.00 0.00 0.00 32 1011.9
20260510012528 83 71 0.0 2.0 0.00 0.00 0.00 31 1011.8
20260510012030 84 0 0.0 2.0 0.00 0.00 0.00 31 1011.8
20260510011555 85 124 0.0 3.0 0.00 0.00 0.00 30 1011.8
20260510011030 87 176 0.0 3.0 0.00 0.00 0.00 28 1011.8
20260510010527 88 205 1.0 3.0 0.00 0.00 0.00 27 1011.7
20260510010055 87 0 0.0 4.0 0.00 0.00 0.00 29 1011.7
20260510005529 86 152 2.0 4.0 0.00 0.00 0.00 29 1011.7
20260510005027 87 223 1.0 4.0 0.00 0.00 0.00 28 1011.7
20260510004541 88 214 0.0 2.0 0.00 0.00 0.00 28 1011.7
20260510004032 87 228 1.0 4.0 0.00 0.00 0.00 29 1011.6
20260510003529 87 240 1.0 4.0 0.00 0.00 0.00 31 1011.7
20260510003043 88 168 1.0 7.0 0.00 0.00 0.00 30 1011.7
20260510002528 88 136 1.0 7.0 0.00 0.00 0.00 30 1011.7
20260510002031 88 131 0.0 3.0 0.00 0.00 0.00 31 1011.7
20260510001539 88 113 1.0 4.0 0.00 0.00 0.00 32 1011.7
20260510001028 87 103 1.0 6.0 0.00 0.00 0.00 31 1011.8
20260510000528 87 145 1.0 6.0 0.00 0.00 0.00 31 1011.7
20260510000048 87 128 1.0 6.0 0.00 0.00 0.00 31 1011.7
20260509235530 88 270 2.0 7.0 0.00 0.00 0.00 29 1011.7
20260509235027 89 231 2.0 7.0 0.00 0.00 0.00 30 1011.8